Flood From: 18-02-2018 16:00 Until: 19-02-2018 16:00 warning for: Flood Level: Yellow info button

Although rather usual in this region, locally or potentially dangerous phenomena are expected. (such as local winds, summer thunderstorms, rising streams or high waves) Be aware and pay attention to the latest weather updates, especially if you carry out activities exposed to weather or close to a stream or shoreline. 


Meteo18 Weather Cam more information Meteo18 Weather Cam


Thunder radar more information blitzortung!


Rain radar more information rain snow radar


Visit our other weather sites:

Template documentation
and downloads

And another site



Weather Underground History page Text

Daily Summary for July 10, 2016 Units:  Metric    English   Both
« Previous Day
Next Day »
Daily Weekly Monthly Yearly Custom
  High: Low: Average:
Temperature: -17.8 °C -10.1 °C -4.4 °C
Dew Point: -17.8 °C -10.9 °C -9.1 °C
Humidity: Humidity % 29 % 65 %
Wind Speed: 0 km/h 0 km/h 1.6 km/h
Wind Gust: 0 km/h - -
Wind:- - WSW
Pressure: 0 hPa 34246 hPa -
Precipitation: 0 mm    
Historical Graphs
 
 
Tabular Data for July 10, 2016
Time Temperature Dew Point Pressure Wind Wind Speed Wind Gust Humidity Rainfall Rate (Hourly)
-17.8 °C -17.8 °C 0 hPa Calm     Humidity % 0 mm
00:02 -7.7 °C -8.7 °C 34442.4 hPa Calm     89 % 0 mm
00:07 -7.8 °C -8.8 °C 34442.4 hPa Calm     89 % 0 mm
00:12 -7.8 °C -8.8 °C 34442.4 hPa Calm     89 % 0 mm
00:17 -7.9 °C -8.9 °C 34442.4 hPa Calm     89 % 0 mm
00:22 -7.9 °C -8.9 °C 34442.4 hPa Calm     89 % 0 mm
00:27 -7.9 °C -8.9 °C 34428.8 hPa Calm     89 % 0 mm
00:32 -7.9 °C -8.9 °C 34428.8 hPa Calm     90 % 0 mm
00:42 -7.9 °C -8.9 °C 34428.8 hPa Calm     89 % 0 mm
00:47 -8 °C -8.9 °C 34428.8 hPa Calm     90 % 0 mm
00:52 -8.1 °C -9 °C 34428.8 hPa Calm     90 % 0 mm
00:57 -8.1 °C -9.1 °C 34428.8 hPa Calm     90 % 0 mm
01:02 -8.1 °C -8.9 °C 34428.8 hPa Calm     91 % 0 mm
01:07 -8.2 °C -9.1 °C 34418.7 hPa Calm     91 % 0 mm
01:12 -8.3 °C -9.1 °C 34418.7 hPa Calm     91 % 0 mm
01:17 -8.3 °C -9.2 °C 34418.7 hPa Calm     91 % 0 mm
01:22 -8.4 °C -9.1 °C 34418.7 hPa Calm     92 % 0 mm
01:27 -8.4 °C -9.2 °C 34418.7 hPa Calm     92 % 0 mm
01:42 -8.4 °C -9.2 °C 34405.1 hPa Calm     92 % 0 mm
01:47 -8.5 °C -9.2 °C 34405.1 hPa Calm     92 % 0 mm
01:52 -8.6 °C -9.3 °C 34405.1 hPa Calm     92 % 0 mm
01:57 -8.7 °C -9.4 °C 34405.1 hPa Calm     92 % 0 mm
02:02 -8.7 °C -9.3 °C 34405.1 hPa Calm     93 % 0 mm
02:07 -8.7 °C -9.3 °C 34405.1 hPa Calm     93 % 0 mm
02:12 -8.7 °C -9.3 °C 34405.1 hPa Calm     93 % 0 mm
02:17 -8.7 °C -9.3 °C 34405.1 hPa Calm     93 % 0 mm
02:22 -8.7 °C -9.3 °C 34395 hPa Calm     93 % 0 mm
02:27 -8.8 °C -9.4 °C 34395 hPa Calm     93 % 0 mm
02:32 -8.8 °C -9.3 °C 34395 hPa Calm     94 % 0 mm
02:37 -8.8 °C -9.3 °C 34395 hPa Calm     94 % 0 mm
02:42 -8.8 °C -9.4 °C 34395 hPa Calm     93 % 0 mm
02:47 -8.9 °C -9.4 °C 34395 hPa Calm     94 % 0 mm
02:52 -8.9 °C -9.5 °C 34395 hPa Calm     94 % 0 mm
02:57 -8.9 °C -9.5 °C 34395 hPa Calm     94 % 0 mm
03:02 -8.9 °C -9.5 °C 34395 hPa Calm     94 % 0 mm
03:07 -9 °C -9.6 °C 34384.8 hPa Calm     94 % 0 mm
03:12 -9 °C -9.6 °C 34384.8 hPa Calm     94 % 0 mm
03:17 -9 °C -9.4 °C 34384.8 hPa Calm     95 % 0 mm
03:22 -9 °C -9.6 °C 34384.8 hPa Calm     94 % 0 mm
03:27 -9.1 °C -9.7 °C 34384.8 hPa Calm     94 % 0 mm
03:32 -9.2 °C -9.7 °C 34384.8 hPa Calm     94 % 0 mm
03:37 -9.3 °C -9.8 °C 34384.8 hPa Calm     94 % 0 mm
03:42 -9.3 °C -9.7 °C 34384.8 hPa Calm     95 % 0 mm
03:47 -9.3 °C -9.8 °C 34384.8 hPa Calm     95 % 0 mm
03:52 -9.3 °C -9.8 °C 34384.8 hPa Calm     95 % 0 mm
03:57 -9.3 °C -9.8 °C 34371.3 hPa Calm     95 % 0 mm
04:02 -9.4 °C -9.8 °C 34371.3 hPa Calm     95 % 0 mm
04:07 -9.4 °C -9.8 °C 34371.3 hPa Calm     95 % 0 mm
04:12 -9.4 °C -9.9 °C 34371.3 hPa Calm     95 % 0 mm
04:17 -9.5 °C -9.9 °C 34371.3 hPa Calm     95 % 0 mm
04:22 -9.5 °C -9.9 °C 34371.3 hPa Calm     95 % 0 mm
04:27 -9.6 °C -10 °C 34371.3 hPa Calm     95 % 0 mm
04:32 -9.6 °C -10.1 °C 34371.3 hPa Calm     95 % 0 mm
04:37 -9.6 °C -10.1 °C 34371.3 hPa Calm     95 % 0 mm
04:42 -9.6 °C -10.1 °C 34361.1 hPa Calm     95 % 0 mm
04:47 -9.6 °C -9.9 °C 34361.1 hPa Calm     96 % 0 mm
04:52 -9.7 °C -10.1 °C 34361.1 hPa Calm     95 % 0 mm
04:57 -9.7 °C -10.1 °C 34361.1 hPa Calm     95 % 0 mm
05:02 -9.7 °C -10 °C 34361.1 hPa Calm     96 % 0 mm
05:07 -9.7 °C -10 °C 34361.1 hPa Calm     96 % 0 mm
05:12 -9.8 °C -10.1 °C 34361.1 hPa Calm     96 % 0 mm
05:17 -9.8 °C -10.1 °C 34361.1 hPa Calm     96 % 0 mm
05:22 -9.7 °C -10.1 °C 34361.1 hPa Calm     96 % 0 mm
05:27 -9.7 °C -10 °C 34361.1 hPa Calm     96 % 0 mm
05:32 -9.7 °C -10 °C 34361.1 hPa Calm     96 % 0 mm
05:37 -9.7 °C -10.1 °C 34361.1 hPa Calm     96 % 0 mm
05:42 -9.8 °C -10.1 °C 34361.1 hPa Calm     96 % 0 mm
05:47 -9.8 °C -10.2 °C 34347.6 hPa Calm     96 % 0 mm
05:52 -9.9 °C -10.2 °C 34347.6 hPa Calm     96 % 0 mm
05:57 -9.9 °C -10.2 °C 34347.6 hPa Calm     96 % 0 mm
06:02 -9.9 °C -10.2 °C 34361.1 hPa Calm     96 % 0 mm
06:07 -9.9 °C -10.3 °C 34361.1 hPa Calm     96 % 0 mm
06:12 -9.9 °C -10.3 °C 34361.1 hPa Calm     96 % 0 mm
06:17 -9.9 °C -10.3 °C 34347.6 hPa Calm     96 % 0 mm
06:22 -10 °C -10.3 °C 34361.1 hPa Calm     96 % 0 mm
06:32 -10.1 °C -10.4 °C 34347.6 hPa Calm     96 % 0 mm
06:37 -10.1 °C -10.4 °C 34347.6 hPa Calm     96 % 0 mm
06:42 -10.1 °C -10.4 °C 34347.6 hPa Calm     96 % 0 mm
06:47 -10.1 °C -10.4 °C 34347.6 hPa Calm     96 % 0 mm
06:57 -9.9 °C -10.2 °C 34361.1 hPa Calm     97 % 0 mm
07:02 -9.9 °C -10.2 °C 34361.1 hPa Calm     97 % 0 mm
07:12 -9.9 °C -10.2 °C 34361.1 hPa Calm     97 % 0 mm
07:17 -9.9 °C -10.2 °C 34347.6 hPa Calm     97 % 0 mm
07:22 -9.8 °C -10.1 °C 34361.1 hPa Calm     97 % 0 mm
07:32 -9.6 °C -9.9 °C 34361.1 hPa Calm     97 % 0 mm
07:37 -9.4 °C -9.7 °C 34361.1 hPa Calm     97 % 0 mm
07:42 -9.3 °C -9.6 °C 34361.1 hPa Calm     97 % 0 mm
07:47 -9.2 °C -9.5 °C 34361.1 hPa Calm     97 % 0 mm
07:52 -9.1 °C -9.2 °C 34361.1 hPa Calm     98 % 0 mm
07:57 -9 °C -9.2 °C 34361.1 hPa Calm     98 % 0 mm
08:02 -8.8 °C -9 °C 34361.1 hPa Calm     98 % 0 mm
08:12 -8.7 °C -8.8 °C 34361.1 hPa Calm     98 % 0 mm
08:17 -8.6 °C -8.8 °C 34347.6 hPa Calm     98 % 0 mm
08:22 -8.6 °C -8.7 °C 34347.6 hPa Calm     98 % 0 mm
08:32 -8.4 °C -8.7 °C 34347.6 hPa Calm     97 % 0 mm
08:42 -8.2 °C -8.3 °C 34347.6 hPa Calm     98 % 0 mm
08:47 -8.1 °C -8.3 °C 34347.6 hPa Calm     98 % 0 mm
08:52 -7.9 °C -8.2 °C 34347.6 hPa Calm     97 % 0 mm
08:57 -7.6 °C -7.9 °C 34347.6 hPa Calm     97 % 0 mm
09:02 -7.2 °C -7.9 °C 34347.6 hPa Calm     92 % 0 mm
09:12 -6.3 °C -8 °C 34347.6 hPa Calm     83 % 0 mm
09:17 -5.9 °C -7.8 °C 34347.6 hPa Calm     81 % 0 mm
09:22 -5.4 °C -8 °C 34337.4 hPa Calm     75 % 0 mm
09:27 -5 °C -7.6 °C 34347.6 hPa Calm     75 % 0 mm
09:32 -4.6 °C -7.9 °C 34347.6 hPa Calm     69 % 0 mm
09:37 -4.3 °C -7.7 °C 34337.4 hPa Calm     69 % 0 mm
09:42 -3.9 °C -7.7 °C 34337.4 hPa Calm     66 % 0 mm
09:47 -3.7 °C -7.6 °C 34337.4 hPa Calm     65 % 0 mm
09:52 -3.4 °C -7.5 °C 34327.3 hPa Calm     64 % 0 mm
09:57 -3.3 °C -7.5 °C 34337.4 hPa Calm     63 % 0 mm
10:02 -3.1 °C -7.5 °C 34337.4 hPa Calm     62 % 0 mm
10:07 -2.9 °C -7.4 °C 34327.3 hPa Calm     61 % 0 mm
10:12 -2.7 °C -7.6 °C 34327.3 hPa Calm     59 % 0 mm
10:17 -2.7 °C -7.5 °C 34327.3 hPa Calm     59 % 0 mm
10:22 -2.6 °C -7.6 °C 34327.3 hPa Calm     58 % 0 mm
10:27 -2.4 °C -7.9 °C 34327.3 hPa Calm     55 % 0 mm
10:32 -2.3 °C -7.8 °C 34327.3 hPa Calm     55 % 0 mm
10:37 -2.1 °C -7.4 °C 34327.3 hPa Calm     56 % 0 mm
10:42 -2.1 °C -8.1 °C 34327.3 hPa Calm     52 % 0 mm
10:47 -1.9 °C -7.6 °C 34327.3 hPa Calm     54 % 0 mm
10:52 -1.8 °C -7.9 °C 34327.3 hPa Calm     51 % 0 mm
10:57 -1.8 °C -7.6 °C 34327.3 hPa Calm     53 % 0 mm
11:02 -1.7 °C -7.9 °C 34327.3 hPa Calm     51 % 0 mm
11:07 -1.7 °C -8.1 °C 34327.3 hPa Calm     50 % 0 mm
11:12 -1.7 °C -7.9 °C 34327.3 hPa Calm     51 % 0 mm
11:17 -1.6 °C -7.8 °C 34327.3 hPa Calm     51 % 0 mm
11:22 -1.3 °C -7.9 °C 34327.3 hPa Calm     49 % 0 mm
11:27 -1.3 °C -8.1 °C 34327.3 hPa Calm     48 % 0 mm
11:32 -1.2 °C -7.8 °C 34327.3 hPa Calm     49 % 0 mm
11:37 -1.2 °C -7.8 °C 34327.3 hPa Calm     49 % 0 mm
11:42 -1.1 °C -8.4 °C 34313.7 hPa Calm     45 % 0 mm
11:47 -1.1 °C -8.1 °C 34313.7 hPa Calm     47 % 0 mm
11:52 -0.9 °C -7.9 °C 34313.7 hPa Calm     47 % 0 mm
11:57 -0.9 °C -8.1 °C 34313.7 hPa Calm     46 % 0 mm
12:02 -0.9 °C -7.9 °C 34313.7 hPa Calm     47 % 0 mm
12:07 -0.8 °C -8 °C 34313.7 hPa West 2.6 km/h   46 % 0 mm
12:12 -0.8 °C -7.8 °C 34313.7 hPa SW 5.1 km/h 15.6 km/h 47 % 0 mm
12:17 -0.9 °C -8.3 °C 34313.7 hPa West 5.1 km/h 15.6 km/h 45 % 0 mm
12:22 -0.8 °C -7.8 °C 34313.7 hPa SW 7.7 km/h 12.9 km/h 47 % 0 mm
12:27 -0.9 °C -8.1 °C 34313.7 hPa Calm   12.9 km/h 46 % 0 mm
12:32 -0.7 °C -7.9 °C 34313.7 hPa Calm   12.9 km/h 46 % 0 mm
12:42 -0.4 °C -8 °C 34313.7 hPa WSW 10.3 km/h 15.6 km/h 44 % 0 mm
12:52 -0.5 °C -7.9 °C 34303.6 hPa Calm   15.6 km/h 45 % 0 mm
12:57 -0.4 °C -8 °C 34303.6 hPa Calm   12.9 km/h 44 % 0 mm
13:02 -0.4 °C -8.1 °C 34303.6 hPa Calm   15.6 km/h 44 % 0 mm
13:07 -0.4 °C -8.7 °C 34303.6 hPa Calm   15.6 km/h 41 % 0 mm
13:12 -0.3 °C -8.4 °C 34303.6 hPa Calm   18.2 km/h 42 % 0 mm
13:17 -0.3 °C -7.6 °C 34303.6 hPa SW 2.6 km/h 18.2 km/h 46 % 0 mm
13:22 -0.2 °C -7.7 °C 34303.6 hPa West 5.1 km/h 20.8 km/h 45 % 0 mm
13:27 -0.3 °C -7.5 °C 34293.4 hPa WNW 2.6 km/h 20.8 km/h 46 % 0 mm
13:32 -0.1 °C -8.4 °C 34293.4 hPa Calm   20.8 km/h 41 % 0 mm
13:37 0.1 °C -8 °C 34293.4 hPa Calm   7.7 km/h 42 % 0 mm
13:42 -0.1 °C -8.1 °C 34293.4 hPa Calm   12.9 km/h 42 % 0 mm
13:47 -0.1 °C -8.2 °C 34293.4 hPa SSW 5.1 km/h 15.6 km/h 42 % 0 mm
13:52 0.1 °C -8.2 °C 34293.4 hPa WSW 2.6 km/h 15.6 km/h 41 % 0 mm
13:57 0.1 °C -8.4 °C 34293.4 hPa WSW 18.2 km/h 18.2 km/h 40 % 0 mm
14:02 -0.1 °C -8.2 °C 34293.4 hPa WSW 2.6 km/h 18.2 km/h 42 % 0 mm
14:07 -0.1 °C -8.2 °C 34293.4 hPa SW 7.7 km/h 23.3 km/h 42 % 0 mm
14:12 -0.2 °C -8.2 °C 34293.4 hPa SSW 5.1 km/h 23.3 km/h 42 % 0 mm
14:17 0.1 °C -7.8 °C 34279.9 hPa SW 12.9 km/h 23.3 km/h 43 % 0 mm
14:22 0 °C -8.1 °C 34279.9 hPa Calm   18.2 km/h 42 % 0 mm
14:27 0.1 °C -8.4 °C 34279.9 hPa WSW 2.6 km/h 15.6 km/h 40 % 0 mm
14:32 0.1 °C -8.4 °C 34279.9 hPa SW 5.1 km/h 18.2 km/h 40 % 0 mm
14:37 0.2 °C -8.3 °C 34279.9 hPa Calm   18.2 km/h 40 % 0 mm
14:42 0.2 °C -8.3 °C 34279.9 hPa East 5.1 km/h 18.2 km/h 40 % 0 mm
14:47 0.2 °C -8.8 °C 34279.9 hPa West 5.1 km/h 15.6 km/h 38 % 0 mm
14:52 0.2 °C -9 °C 34279.9 hPa WSW 7.7 km/h 15.6 km/h 37 % 0 mm
14:57 0.3 °C -8.9 °C 34279.9 hPa West 10.3 km/h 18.2 km/h 37 % 0 mm
15:07 0.1 °C -9.8 °C 34279.9 hPa West 7.7 km/h 20.8 km/h 34 % 0 mm
15:12 0.2 °C -9 °C 34279.9 hPa WSW 5.1 km/h 20.8 km/h 37 % 0 mm
15:17 0.2 °C -9.3 °C 34279.9 hPa WSW 7.7 km/h 20.8 km/h 36 % 0 mm
15:22 0.2 °C -9 °C 34269.7 hPa NE 5.1 km/h 15.6 km/h 37 % 0 mm
15:27 0.3 °C -8.7 °C 34279.9 hPa WSW 7.7 km/h 15.6 km/h 38 % 0 mm
15:32 0.4 °C -8.6 °C 34279.9 hPa West 2.6 km/h 15.6 km/h 38 % 0 mm
15:37 0.3 °C -9.1 °C 34269.7 hPa WSW 7.7 km/h 20.8 km/h 36 % 0 mm
15:42 0.5 °C -9.4 °C 34279.9 hPa West 2.6 km/h 20.8 km/h 34 % 0 mm
15:52 0.6 °C -9.4 °C 34269.7 hPa NW 12.9 km/h 18.2 km/h 34 % 0 mm
15:57 0.4 °C -9.8 °C 34279.9 hPa Calm   20.8 km/h 33 % 0 mm
16:02 0.5 °C -9.7 °C 34279.9 hPa WSW 12.9 km/h 20.8 km/h 33 % 0 mm
16:07 0.5 °C -9.7 °C 34269.7 hPa Calm   20.8 km/h 33 % 0 mm
16:12 0.3 °C -10.1 °C 34269.7 hPa Calm   20.8 km/h 32 % 0 mm
16:17 0.4 °C -10.3 °C 34269.7 hPa WSW 5.1 km/h 23.3 km/h 31 % 0 mm
16:22 0.4 °C -10.9 °C 34279.9 hPa WSW 5.1 km/h 23.3 km/h 29 % 0 mm
16:27 0.5 °C -10.8 °C 34269.7 hPa Calm   20.8 km/h 29 % 0 mm
16:32 0.6 °C -10.2 °C 34269.7 hPa Calm   20.8 km/h 31 % 0 mm
16:37 0.5 °C -10.8 °C 34269.7 hPa West 2.6 km/h 15.6 km/h 29 % 0 mm
16:42 0.4 °C -10.1 °C 34269.7 hPa Calm   15.6 km/h 32 % 0 mm
16:47 0.4 °C -10.3 °C 34269.7 hPa Calm   18.2 km/h 31 % 0 mm
16:52 0.5 °C -10 °C 34269.7 hPa Calm   18.2 km/h 32 % 0 mm
16:57 0.5 °C -9.7 °C 34269.7 hPa West 5.1 km/h 15.6 km/h 33 % 0 mm
17:02 0.4 °C -9.8 °C 34269.7 hPa WSW 2.6 km/h 18.2 km/h 33 % 0 mm
17:07 0.5 °C -9.7 °C 34269.7 hPa West 2.6 km/h 18.2 km/h 33 % 0 mm
17:12 0.5 °C -10.3 °C 34269.7 hPa WNW 7.7 km/h 18.2 km/h 31 % 0 mm
17:17 0.4 °C -9.5 °C 34269.7 hPa West 10.3 km/h 15.6 km/h 34 % 0 mm
17:22 0.1 °C -9.6 °C 34269.7 hPa West 2.6 km/h 18.2 km/h 35 % 0 mm
17:27 0.1 °C -9.8 °C 34269.7 hPa WSW 2.6 km/h 20.8 km/h 34 % 0 mm
17:32 0 °C -9.9 °C 34269.7 hPa Calm   20.8 km/h 34 % 0 mm
17:37 -0.2 °C -9.8 °C 34256.2 hPa West 2.6 km/h 20.8 km/h 35 % 0 mm
17:42 -0.5 °C -10.1 °C 34269.7 hPa Calm   15.6 km/h 35 % 0 mm
17:47 -0.6 °C -9.9 °C 34269.7 hPa Calm   12.9 km/h 36 % 0 mm
17:52 -0.4 °C -10.1 °C 34269.7 hPa West 2.6 km/h 12.9 km/h 35 % 0 mm
17:57 -0.2 °C -10.1 °C 34269.7 hPa WSW 10.3 km/h 15.6 km/h 34 % 0 mm
18:02 -0.1 °C -9.9 °C 34269.7 hPa SSW 2.6 km/h 18.2 km/h 34 % 0 mm
18:07 -0.1 °C -9.9 °C 34269.7 hPa Calm   18.2 km/h 34 % 0 mm
18:12 -0.1 °C -9.8 °C 34269.7 hPa Calm   18.2 km/h 35 % 0 mm
18:17 -0.1 °C -10 °C 34256.2 hPa Calm   12.9 km/h 34 % 0 mm
18:22 -0.1 °C -10 °C 34256.2 hPa Calm   15.6 km/h 34 % 0 mm
18:27 -0.4 °C -10 °C 34256.2 hPa WSW 5.1 km/h 15.6 km/h 35 % 0 mm
18:32 -0.5 °C -10.1 °C 34256.2 hPa NNE 12.9 km/h 15.6 km/h 35 % 0 mm
18:42 -0.3 °C -9.7 °C 34256.2 hPa WSW 7.7 km/h 18.2 km/h 36 % 0 mm
18:47 -0.4 °C -9.8 °C 34256.2 hPa WSW 5.1 km/h 18.2 km/h 36 % 0 mm
18:52 -0.4 °C -9.8 °C 34256.2 hPa WSW 2.6 km/h 15.6 km/h 36 % 0 mm
18:57 -0.6 °C -9.4 °C 34256.2 hPa WSW 7.7 km/h 15.6 km/h 38 % 0 mm
19:02 -0.7 °C -10.1 °C 34256.2 hPa WNW 7.7 km/h 12.9 km/h 36 % 0 mm
19:07 -0.9 °C -9.7 °C 34256.2 hPa WSW 2.6 km/h 15.6 km/h 38 % 0 mm
19:12 -1 °C -9.8 °C 34256.2 hPa WSW 5.1 km/h 15.6 km/h 38 % 0 mm
19:17 -1 °C -9.6 °C 34256.2 hPa SW 5.1 km/h 15.6 km/h 39 % 0 mm
19:22 -1.1 °C -9.7 °C 34256.2 hPa WSW 18.2 km/h 18.2 km/h 39 % 0 mm
19:27 -1.1 °C -9.7 °C 34256.2 hPa West 7.7 km/h 20.8 km/h 39 % 0 mm
19:32 -1.2 °C -9.8 °C 34256.2 hPa West 2.6 km/h 20.8 km/h 39 % 0 mm
19:37 -1.2 °C -9.2 °C 34256.2 hPa Calm   20.8 km/h 42 % 0 mm
19:42 -1.3 °C -9.8 °C 34256.2 hPa SW 7.7 km/h 20.8 km/h 39 % 0 mm
19:47 -1.3 °C -9.4 °C 34256.2 hPa WSW 10.3 km/h 25.9 km/h 41 % 0 mm
19:52 -1.4 °C -9.5 °C 34256.2 hPa WSW 7.7 km/h 25.9 km/h 41 % 0 mm
19:57 -1.5 °C -9.6 °C 34256.2 hPa SW 5.1 km/h 25.9 km/h 41 % 0 mm
20:02 -1.6 °C -9.5 °C 34256.2 hPa West 5.1 km/h 15.6 km/h 42 % 0 mm
20:07 -1.7 °C -9.6 °C 34256.2 hPa WSW 5.1 km/h 15.6 km/h 42 % 0 mm
20:12 -1.8 °C -9.5 °C 34256.2 hPa SW 5.1 km/h 15.6 km/h 43 % 0 mm
20:17 -1.9 °C -9.3 °C 34256.2 hPa WSW 2.6 km/h 18.2 km/h 44 % 0 mm
20:22 -2 °C -9.3 °C 34256.2 hPa WSW 5.1 km/h 18.2 km/h 45 % 0 mm
20:27 -2.1 °C -9.2 °C 34256.2 hPa WSW 2.6 km/h 18.2 km/h 46 % 0 mm
20:32 -2.2 °C -9.1 °C 34246 hPa WSW 2.6 km/h 10.3 km/h 47 % 0 mm
20:37 -2.3 °C -9.2 °C 34246 hPa West 12.9 km/h 12.9 km/h 47 % 0 mm
20:42 -2.3 °C -9.2 °C 34246 hPa SW 2.6 km/h 12.9 km/h 47 % 0 mm
20:47 -2.4 °C -9.1 °C 34246 hPa Calm   12.9 km/h 48 % 0 mm
20:52 -2.6 °C -8.8 °C 34246 hPa Calm   12.9 km/h 50 % 0 mm
20:57 -2.7 °C -8.9 °C 34246 hPa West 2.6 km/h 10.3 km/h 50 % 0 mm
21:02 -2.8 °C -8.9 °C 34256.2 hPa Calm   10.3 km/h 51 % 0 mm
21:07 -2.9 °C -8.8 °C 34256.2 hPa WSW 2.6 km/h 10.3 km/h 52 % 0 mm
21:12 -2.9 °C -8.8 °C 34256.2 hPa SW 2.6 km/h 10.3 km/h 52 % 0 mm
21:17 -2.9 °C -8.9 °C 34256.2 hPa Calm   10.3 km/h 52 % 0 mm
21:22 -3 °C -8.8 °C 34256.2 hPa WSW 2.6 km/h 10.3 km/h 53 % 0 mm
21:27 -3.1 °C -8.7 °C 34256.2 hPa Calm   7.7 km/h 54 % 0 mm
21:32 -3.2 °C -8.9 °C 34256.2 hPa Calm   7.7 km/h 53 % 0 mm
21:37 -3.2 °C -8.8 °C 34256.2 hPa Calm   7.7 km/h 54 % 0 mm
21:42 -3.3 °C -8.7 °C 34256.2 hPa Calm   7.7 km/h 55 % 0 mm
21:47 -3.4 °C -8.8 °C 34256.2 hPa Calm   7.7 km/h 55 % 0 mm
21:52 -3.6 °C -8.8 °C 34256.2 hPa Calm   5.1 km/h 56 % 0 mm
21:57 -3.7 °C -8.7 °C 34269.7 hPa Calm   5.1 km/h 57 % 0 mm
22:02 -3.8 °C -8.7 °C 34269.7 hPa Calm   5.1 km/h 58 % 0 mm
22:07 -3.9 °C -8.6 °C 34269.7 hPa Calm     60 % 0 mm
22:12 -4.2 °C -8.6 °C 34269.7 hPa Calm     61 % 0 mm
22:17 -4.4 °C -8.6 °C 34269.7 hPa Calm     63 % 0 mm
22:22 -4.6 °C -8.6 °C 34279.9 hPa Calm     64 % 0 mm
22:27 -4.8 °C -8.6 °C 34279.9 hPa Calm     66 % 0 mm
22:32 -5.1 °C -8.5 °C 34279.9 hPa Calm     68 % 0 mm
22:37 -5.2 °C -8.7 °C 34279.9 hPa Calm     68 % 0 mm
22:42 -5.3 °C -8.6 °C 34293.4 hPa Calm     69 % 0 mm
22:47 -5.3 °C -8.7 °C 34293.4 hPa Calm     69 % 0 mm
22:52 -5.4 °C -8.6 °C 34293.4 hPa Calm     70 % 0 mm
22:57 -5.4 °C -8.6 °C 34293.4 hPa Calm     70 % 0 mm
23:02 -5.5 °C -8.7 °C 34279.9 hPa Calm     70 % 0 mm
23:07 -5.6 °C -8.7 °C 34293.4 hPa Calm     71 % 0 mm
23:12 -5.7 °C -8.6 °C 34279.9 hPa Calm     72 % 0 mm
23:17 -5.7 °C -8.7 °C 34293.4 hPa Calm     72 % 0 mm
23:22 -5.8 °C -8.6 °C 34293.4 hPa Calm     73 % 0 mm
23:27 -6 °C -8.7 °C 34293.4 hPa Calm     74 % 0 mm
23:32 -6.1 °C -8.7 °C 34293.4 hPa Calm     74 % 0 mm
23:37 -6 °C -8.9 °C 34293.4 hPa Calm     72 % 0 mm
23:42 -5.9 °C -9.2 °C 34293.4 hPa Calm   2.6 km/h 69 % 0 mm
23:47 -5.7 °C -9.3 °C 34293.4 hPa Calm   2.6 km/h 67 % 0 mm
23:52 -5.7 °C -9.3 °C 34293.4 hPa Calm   2.6 km/h 67 % 0 mm
23:57 -5.7 °C -9.4 °C 34293.4 hPa Calm   2.6 km/h 66 % 0 mm
Meteo18
Compliments of Weather Underground - 4 mb

Script developed by  Jim McMurry - jmcmurry@mwt.net Adapted for the template by  Wim van der Kuil - Leuven-Template.eu

You find our weather info also at:

European Weather Network

Weather Underground

Equipment we use:

Weather-station
Davis Vue

Weather-program
Meteobridge

Weather-server
Raspberry PI 2 B+

Provider
1 and 1

Davis Vue

Meteobridge

Raspberry PI 2 B+

1 and 1